Date String (YYYY-MM-DD hh:mm:ss) UTC,Instrument flags,absolute air pressure of the measurement (hPa),sample flow rate (lpm),inlet stack bypass flow (lpm),air temperature of the measurement (°C),ambient temperature measured by the external sensor (°C),aerosol sample conditioner tube jacket temperature (°C),OPC LED temperature (°C),internal box temperature (°C),relative humidity of the measurement (%),span deviation,mass concentration of particles derived from Lorenz-Mie calculation of OPC scattering (μg/m³),mass concentration of particles derived from Lorenz-Mie calculation of OPC scattering (μg/m³),mass concentration of particles derived from Lorenz-Mie calculation of OPC scattering (μg/m³)
DateTimeUTC,F1_M11,P_M11,Q1_M11,Q2_M11,T1_M11,T2_M11,T3_M11,T4_M11,T5_M11,U1_M11,ZSPAN_M11,X2_M11,X0_M11,X1_M11
2023-09-21 07:00:00,SystemResetWarning,0827.4,5.00,000.00,028.6,027.4,000.0,036.8,030.4,19.4,0000.0,0002.95,0007.03,0002.29
2023-09-21 07:01:00,SystemResetWarning,0827.5,4.99,000.00,028.7,027.4,000.0,036.8,030.4,19.4,0000.0,0002.86,0006.89,0002.22
2023-09-21 07:02:00,SystemResetWarning,0827.9,4.99,000.00,028.7,027.5,000.0,036.9,030.4,19.5,0000.0,0002.71,0006.33,0002.12
2023-09-21 07:03:00,SystemResetWarning,0827.7,4.99,000.00,028.7,027.5,000.0,036.9,030.5,19.5,0000.0,0002.64,0005.29,0002.05
2023-09-21 07:04:00,SystemResetWarning,0827.5,5.01,000.00,028.7,027.5,000.0,036.9,030.5,19.3,0000.0,0002.55,0005.22,0001.95
2023-09-21 07:05:00,SystemResetWarning,0827.7,5.01,000.00,028.7,027.5,000.0,036.9,030.5,19.3,0000.0,0002.44,0004.98,0001.87
2023-09-21 07:06:00,SystemResetWarning,0827.6,5.01,000.00,028.8,027.5,000.0,037.0,030.5,19.2,0000.0,0002.34,0004.66,0001.78
2023-09-21 07:07:00,SystemResetWarning,0827.7,4.99,000.00,028.8,027.5,000.0,037.0,030.5,19.1,0000.0,0002.23,0004.30,0001.71
2023-09-21 07:08:00,SystemResetWarning,0827.8,4.99,000.00,028.8,027.5,000.0,037.0,030.5,19.0,0000.0,0002.15,0004.66,0001.66
2023-09-21 07:09:00,SystemResetWarning,0827.6,5.01,000.00,028.8,027.5,000.0,037.0,030.5,19.0,0000.0,0002.13,0005.35,0001.64
2023-09-21 07:10:00,SystemResetWarning,0827.4,5.00,000.00,028.8,027.5,000.0,037.0,030.5,18.9,0000.0,0002.18,0006.27,0001.64
2023-09-21 07:11:00,SystemResetWarning,0827.4,5.00,000.00,028.8,027.4,000.0,037.0,030.5,18.9,0000.0,0002.24,0006.71,0001.66
2023-09-21 07:12:00,SystemResetWarning,0827.4,4.98,000.00,028.8,025.8,000.0,037.0,030.1,19.0,0000.0,0002.21,0006.92,0001.66
2023-09-21 07:13:00,SystemResetWarning,0827.4,5.01,000.00,028.6,024.5,000.0,036.9,029.8,19.1,0000.0,0002.23,0007.08,0001.68
2023-09-21 07:14:00,SystemResetWarning,0827.4,5.01,000.00,028.5,024.4,000.0,036.9,029.6,19.3,0000.0,0002.21,0007.04,0001.70
2023-09-21 07:15:00,SystemResetWarning,0827.4,5.00,000.00,028.4,024.6,000.0,036.9,029.5,19.4,0000.0,0002.23,0007.02,0001.73
2023-09-21 07:16:00,SystemResetWarning,0827.4,5.00,000.00,028.3,024.9,000.0,036.9,029.6,19.4,0000.0,0002.29,0007.26,0001.77
2023-09-21 07:17:00,SystemResetWarning,0827.4,5.01,000.00,028.3,025.3,000.0,036.8,029.6,19.5,0000.0,0002.31,0007.29,0001.81
2023-09-21 07:18:00,SystemResetWarning,0827.4,4.99,000.00,028.3,025.6,000.0,036.8,029.7,19.6,0000.0,0002.36,0007.32,0001.85
2023-09-21 07:19:00,SystemResetWarning,0827.4,4.99,000.00,028.2,025.9,000.0,036.8,029.7,19.6,0000.0,0002.40,0006.11,0001.89
2023-09-21 07:20:00,SystemResetWarning,0827.4,4.99,000.00,028.3,026.1,000.0,036.8,029.8,19.6,0000.0,0002.46,0005.79,0001.94
2023-09-21 07:21:00,SystemResetWarning,0827.4,5.00,000.00,028.3,026.3,000.0,036.7,029.9,19.6,0000.0,0002.49,0005.67,0001.97
2023-09-21 07:22:00,SystemResetWarning,0827.4,5.00,000.00,028.3,026.5,000.0,036.7,029.9,19.7,0000.0,0002.50,0005.38,0002.00
2023-09-21 07:23:00,SystemResetWarning,0827.4,5.00,000.00,028.3,026.6,000.0,036.7,029.9,19.8,0000.0,0002.62,0005.23,0002.05
2023-09-21 07:24:00,SystemResetWarning,0827.4,5.00,000.00,028.3,026.7,000.0,036.7,030.0,19.6,0000.0,0002.71,0005.24,0002.11
2023-09-21 07:25:00,SystemResetWarning,0827.4,5.01,000.00,028.3,026.8,000.0,036.7,030.0,19.5,0000.0,0002.80,0005.49,0002.17
2023-09-21 07:26:00,SystemResetWarning,0827.4,5.01,000.00,028.3,026.9,000.0,036.7,030.0,19.4,0000.0,0002.88,0005.61,0002.24
2023-09-21 07:27:00,SystemResetWarning,0827.4,5.00,000.00,028.4,026.9,000.0,036.7,030.0,19.2,0000.0,0002.98,0005.83,0002.32
2023-09-21 07:28:00,SystemResetWarning,0827.4,4.99,000.00,028.4,027.0,000.0,036.7,030.1,19.2,0000.0,0003.10,0006.57,0002.40
2023-09-21 07:29:00,SystemResetWarning,0827.4,4.99,000.00,028.4,027.1,000.0,036.7,030.1,18.9,0000.0,0003.19,0007.65,0002.48
2023-09-21 07:30:00,SystemResetWarning,0827.4,5.00,000.00,028.4,027.1,000.0,036.7,030.1,18.8,0000.0,0003.29,0007.90,0002.56
2023-09-21 07:31:00,SystemResetWarning,0827.4,5.01,000.00,028.4,027.1,000.0,036.7,030.2,18.6,0000.0,0003.33,0007.97,0002.60
2023-09-21 07:32:00,SystemResetWarning,0827.4,5.01,000.00,028.5,027.2,000.0,036.7,030.2,18.4,0000.0,0003.36,0007.49,0002.63
2023-09-21 07:33:00,SystemResetWarning,0827.4,4.99,000.00,028.5,027.2,000.0,036.7,030.2,18.3,0000.0,0003.38,0007.57,0002.66
2023-09-21 07:34:00,SystemResetWarning,0827.4,4.99,000.00,028.5,027.2,000.0,036.8,030.2,18.4,0000.0,0003.39,0007.61,0002.68
2023-09-21 07:35:00,SystemResetWarning,0827.4,5.00,000.00,028.5,027.3,000.0,036.8,030.3,18.6,0000.0,0003.38,0007.82,0002.70
2023-09-21 07:36:00,SystemResetWarning,0827.4,5.01,000.00,028.5,027.3,000.0,036.8,030.2,18.8,0000.0,0003.40,0008.72,0002.71
2023-09-21 07:37:00,SystemResetWarning,0827.4,5.01,000.00,028.6,027.3,000.0,036.8,030.2,18.9,0000.0,0003.43,0009.45,0002.71
2023-09-21 07:38:00,SystemResetWarning,0827.4,5.00,000.00,028.6,027.3,000.0,036.8,030.3,18.6,0000.0,0003.43,0010.50,0002.69
2023-09-21 07:39:00,SystemResetWarning,0827.4,4.99,000.00,028.6,027.3,000.0,036.8,030.3,18.6,0000.0,0003.41,0010.27,0002.67
2023-09-21 07:40:00,SystemResetWarning,0827.4,5.00,000.00,028.6,027.3,000.0,036.8,030.3,18.7,0000.0,0003.38,0009.50,0002.65
2023-09-21 07:41:00,SystemResetWarning,0827.4,5.00,000.00,028.6,027.3,000.0,036.8,030.3,18.7,0000.0,0003.34,0009.74,0002.65
2023-09-21 07:42:00,SystemResetWarning,0827.4,5.00,000.00,028.6,027.3,000.0,036.9,030.3,18.7,0000.0,0003.34,0009.85,0002.66
2023-09-21 07:43:00,SystemResetWarning,0827.7,5.00,000.00,028.6,027.3,000.0,036.9,030.3,18.8,0000.0,0003.37,0010.00,0002.68
2023-09-21 07:44:00,SystemResetWarning,0827.5,5.01,000.00,028.7,027.3,000.0,036.9,030.3,18.8,0000.0,0003.37,0010.25,0002.69
2023-09-21 07:45:00,SystemResetWarning,0827.5,4.99,000.00,028.7,027.3,000.0,036.9,030.3,18.8,0000.0,0003.41,0011.24,0002.71
2023-09-21 07:46:00,SystemResetWarning,0827.5,4.99,000.00,028.7,027.3,000.0,036.9,030.3,18.7,0000.0,0003.44,0011.06,0002.73
2023-09-21 07:47:00,SystemResetWarning,0827.5,5.00,000.00,028.7,027.3,000.0,036.9,030.4,18.6,0000.0,0003.51,0010.60,0002.74
2023-09-21 07:48:00,SystemResetWarning,0827.6,5.01,000.00,028.7,027.3,000.0,037.0,030.4,18.4,0000.0,0003.52,0011.07,0002.75
2023-09-21 07:49:00,SystemResetWarning,0827.6,5.01,000.00,028.7,027.3,000.0,037.0,030.4,18.3,0000.0,0003.57,0010.49,0002.77
2023-09-21 07:50:00,SystemResetWarning,0827.6,5.00,000.00,028.7,027.4,000.0,037.0,030.4,18.4,0000.0,0003.64,0010.91,0002.79
2023-09-21 07:51:00,SystemResetWarning,0827.5,5.00,000.00,028.7,027.4,000.0,037.0,030.4,18.5,0000.0,0003.70,0011.19,0002.80
2023-09-21 07:52:00,SystemResetWarning,0827.5,5.00,000.00,028.8,027.4,000.0,037.0,030.4,18.8,0000.0,0003.75,0011.02,0002.80
2023-09-21 07:53:00,SystemResetWarning,0827.5,4.99,000.00,028.8,027.4,000.0,037.0,030.5,18.4,0000.0,0003.78,0011.11,0002.79
2023-09-21 07:54:00,SystemResetWarning,0827.5,5.00,000.00,028.8,027.4,000.0,037.0,030.5,18.7,0000.0,0003.81,0011.74,0002.81
2023-09-21 07:55:00,SystemResetWarning,0827.5,4.99,000.00,028.8,027.4,000.0,037.0,030.4,18.3,0000.0,0003.87,0013.29,0002.82
2023-09-21 07:56:00,SystemResetWarning,0827.5,5.00,000.00,028.8,027.4,000.0,037.0,030.5,18.2,0000.0,0003.88,0013.27,0002.82
2023-09-21 07:57:00,SystemResetWarning,0827.6,5.01,000.00,028.8,027.5,000.0,037.1,030.5,18.0,0000.0,0003.93,0013.78,0002.81
2023-09-21 07:58:00,SystemResetWarning,0827.5,5.00,000.00,028.8,027.5,000.0,037.1,030.5,18.0,0000.0,0003.93,0013.62,0002.83
2023-09-21 07:59:00,SystemResetWarning,0827.6,5.00,000.00,028.8,027.5,000.0,037.1,030.5,17.8,0000.0,0003.90,0012.82,0002.83
